Wetterdaten: Freitag, 04.09.2015
Datum Zeit Auen-Temp. Temp gefhlt Luftfeuchte Luftdruck Regen Wind Richtung Richtung Taupunkt Windben
04.09.2015 00:00 11,1 C 11,0 C 91 % 1010,5 hPa 0,0 mm 2,3 km/h (1 Bft) W-SW 247 9,7 C 0,0 km/h (0 Bft)
04.09.2015 00:05 11,1 C 11,0 C 91 % 1010,5 hPa 0,0 mm 1,3 km/h (1 Bft) SW 225 9,7 C 2,6 km/h (1 Bft)
04.09.2015 00:10 11,0 C 10,9 C 91 % 1010,5 hPa 0,0 mm 1,3 km/h (1 Bft) W 270 9,6 C 10,4 km/h (2 Bft)
04.09.2015 00:15 10,9 C 10,8 C 91 % 1010,7 hPa 0,0 mm 1,8 km/h (1 Bft) W-SW 247 9,5 C 3,6 km/h (1 Bft)
04.09.2015 00:20 10,7 C 10,6 C 91 % 1010,7 hPa 0,7 mm 4,9 km/h (1 Bft) NW 315 9,3 C 16,3 km/h (3 Bft)
04.09.2015 00:25 10,6 C 10,5 C 91 % 1010,7 hPa 0,0 mm 5,2 km/h (1 Bft) W-NW 292 9,2 C 5,7 km/h (1 Bft)
04.09.2015 00:30 10,5 C 10,4 C 90 % 1010,7 hPa 0,0 mm 2,6 km/h (1 Bft) W 270 8,9 C 0,0 km/h (0 Bft)
04.09.2015 00:35 10,4 C 10,3 C 90 % 1010,8 hPa 0,0 mm 2,3 km/h (1 Bft) SW 225 8,8 C 2,6 km/h (1 Bft)
04.09.2015 00:40 10,3 C 10,2 C 90 % 1010,8 hPa 0,0 mm 2,3 km/h (1 Bft) SW 225 8,7 C 2,6 km/h (1 Bft)
04.09.2015 00:45 10,3 C 10,1 C 90 % 1010,8 hPa 0,0 mm 1,6 km/h (1 Bft) S-SO 157 8,7 C 0,0 km/h (0 Bft)
04.09.2015 00:48 10,3 C 10,2 C 90 % 1010,8 hPa 0,0 mm 0,5 km/h (0 Bft) W-SW 247 8,7 C 0,0 km/h (0 Bft)
04.09.2015 00:50 10,3 C 10,2 C 90 % 1010,8 hPa 0,0 mm 0,5 km/h (0 Bft) W-SW 247 8,7 C 0,0 km/h (0 Bft)
04.09.2015 00:55 10,3 C 10,2 C 90 % 1010,9 hPa 0,0 mm 0,3 km/h (0 Bft) SO 135 8,7 C 2,6 km/h (1 Bft)
04.09.2015 01:00 10,3 C 10,2 C 90 % 1010,9 hPa 0,0 mm 0,3 km/h (0 Bft) W-SW 247 8,7 C 0,0 km/h (0 Bft)
04.09.2015 01:05 10,3 C 10,2 C 90 % 1010,9 hPa 0,0 mm 0,3 km/h (0 Bft) SW 225 8,7 C 0,0 km/h (0 Bft)
04.09.2015 01:10 10,3 C 10,2 C 90 % 1010,9 hPa 0,7 mm 0,0 km/h (0 Bft) SW 225 8,7 C 0,0 km/h (0 Bft)
04.09.2015 01:15 10,2 C 10,1 C 91 % 1010,8 hPa 0,0 mm 0,3 km/h (0 Bft) S-SW 202 8,8 C 0,0 km/h (0 Bft)
04.09.2015 01:20 10,2 C 10,1 C 91 % 1010,8 hPa 0,0 mm 0,3 km/h (0 Bft) SO 135 8,8 C 0,0 km/h (0 Bft)
04.09.2015 01:25 10,2 C 10,1 C 91 % 1010,8 hPa 0,0 mm 0,0 km/h (0 Bft) S-SW 202 8,8 C 0,0 km/h (0 Bft)
04.09.2015 01:30 10,2 C 10,1 C 91 % 1010,8 hPa 0,0 mm 0,0 km/h (0 Bft) SW 225 8,8 C 0,0 km/h (0 Bft)
04.09.2015 01:35 10,2 C 10,1 C 91 % 1010,6 hPa 0,0 mm 0,0 km/h (0 Bft) SO 135 8,8 C 0,0 km/h (0 Bft)
04.09.2015 01:40 10,2 C 10,1 C 91 % 1010,6 hPa 0,0 mm 0,0 km/h (0 Bft) S-SO 157 8,8 C 0,0 km/h (0 Bft)
04.09.2015 01:45 10,2 C 10,1 C 91 % 1010,6 hPa 0,7 mm 0,0 km/h (0 Bft) NO 45 8,8 C 0,0 km/h (0 Bft)
04.09.2015 01:50 10,1 C 10,0 C 91 % 1010,6 hPa 0,0 mm 0,0 km/h (0 Bft) O-NO 67 8,7 C 0,0 km/h (0 Bft)
04.09.2015 01:55 10,1 C 10,0 C 91 % 1010,6 hPa 0,0 mm 0,0 km/h (0 Bft) O-NO 67 8,7 C 0,0 km/h (0 Bft)
04.09.2015 02:00 10,1 C 10,0 C 91 % 1010,6 hPa 0,0 mm 0,0 km/h (0 Bft) O-NO 67 8,7 C 0,0 km/h (0 Bft)
04.09.2015 02:05 10,2 C 10,1 C 91 % 1010,6 hPa 0,0 mm 0,0 km/h (0 Bft) O-NO 67 8,8 C 0,0 km/h (0 Bft)
04.09.2015 02:10 10,2 C 10,1 C 91 % 1010,6 hPa 0,0 mm 0,5 km/h (0 Bft) W-SW 247 8,8 C 0,0 km/h (0 Bft)
04.09.2015 02:15 10,2 C 10,1 C 91 % 1010,8 hPa 0,0 mm 0,8 km/h (0 Bft) W 270 8,8 C 3,6 km/h (1 Bft)
04.09.2015 02:20 10,2 C 10,1 C 91 % 1010,8 hPa 0,0 mm 0,3 km/h (0 Bft) NW 315 8,8 C 0,0 km/h (0 Bft)
04.09.2015 02:25 10,1 C 10,0 C 91 % 1010,8 hPa 0,0 mm 0,3 km/h (0 Bft) SW 225 8,7 C 0,0 km/h (0 Bft)
04.09.2015 02:30 10,1 C 10,0 C 91 % 1010,8 hPa 0,0 mm 0,0 km/h (0 Bft) S-SW 202 8,7 C 0,0 km/h (0 Bft)
04.09.2015 02:35 10,1 C 10,0 C 91 % 1010,8 hPa 0,0 mm 0,3 km/h (0 Bft) SW 225 8,7 C 3,9 km/h (1 Bft)
04.09.2015 02:40 10,1 C 10,0 C 91 % 1010,8 hPa 0,0 mm 0,3 km/h (0 Bft) SO 135 8,7 C 0,0 km/h (0 Bft)
04.09.2015 02:45 10,1 C 10,0 C 91 % 1010,8 hPa 0,0 mm 0,3 km/h (0 Bft) O-SO 112 8,7 C 0,0 km/h (0 Bft)
04.09.2015 02:50 10,1 C 10,0 C 91 % 1010,8 hPa 0,0 mm 0,0 km/h (0 Bft) S-SW 202 8,7 C 0,0 km/h (0 Bft)
04.09.2015 02:55 10,1 C 10,0 C 91 % 1010,5 hPa 0,0 mm 0,0 km/h (0 Bft) S 180 8,7 C 0,0 km/h (0 Bft)
04.09.2015 03:00 10,0 C 9,9 C 91 % 1010,5 hPa 0,0 mm 0,0 km/h (0 Bft) SW 225 8,6 C 0,0 km/h (0 Bft)
04.09.2015 03:05 10,0 C 9,9 C 91 % 1010,5 hPa 0,0 mm 0,0 km/h (0 Bft) SW 225 8,6 C 0,0 km/h (0 Bft)
04.09.2015 03:10 10,0 C 9,9 C 91 % 1010,5 hPa 0,0 mm 0,0 km/h (0 Bft) S 180 8,6 C 0,0 km/h (0 Bft)
04.09.2015 03:15 10,0 C 9,9 C 91 % 1010,4 hPa 0,7 mm 0,0 km/h (0 Bft) S-SO 157 8,6 C 0,0 km/h (0 Bft)
04.09.2015 03:20 10,0 C 9,9 C 91 % 1010,4 hPa 0,0 mm 0,8 km/h (0 Bft) O-NO 67 8,6 C 0,0 km/h (0 Bft)
04.09.2015 03:25 9,9 C 9,8 C 91 % 1010,4 hPa 0,0 mm 0,8 km/h (0 Bft) W-SW 247 8,5 C 2,6 km/h (1 Bft)
04.09.2015 03:30 10,0 C 9,9 C 91 % 1010,4 hPa 0,0 mm 0,0 km/h (0 Bft) W-SW 247 8,6 C 0,0 km/h (0 Bft)
04.09.2015 03:35 10,0 C 9,9 C 91 % 1010,3 hPa 0,0 mm 0,0 km/h (0 Bft) O-SO 112 8,6 C 0,0 km/h (0 Bft)
04.09.2015 03:40 10,0 C 9,9 C 91 % 1010,3 hPa 0,0 mm 0,0 km/h (0 Bft) O-NO 67 8,6 C 0,0 km/h (0 Bft)
04.09.2015 03:45 10,0 C 9,9 C 91 % 1010,3 hPa 0,0 mm 0,0 km/h (0 Bft) O 90 8,6 C 0,0 km/h (0 Bft)
04.09.2015 03:50 9,9 C 9,8 C 91 % 1010,3 hPa 0,0 mm 0,0 km/h (0 Bft) O-NO 67 8,5 C 0,0 km/h (0 Bft)
04.09.2015 03:55 9,9 C 9,8 C 91 % 1010,4 hPa 0,0 mm 0,0 km/h (0 Bft) N-NW 337 8,5 C 0,0 km/h (0 Bft)
04.09.2015 04:00 9,9 C 9,8 C 91 % 1010,4 hPa 0,0 mm 0,0 km/h (0 Bft) S-SO 157 8,5 C 0,0 km/h (0 Bft)
04.09.2015 04:05 9,9 C 9,8 C 91 % 1010,4 hPa 0,0 mm 0,0 km/h (0 Bft) O-NO 67 8,5 C 0,0 km/h (0 Bft)
04.09.2015 04:10 9,9 C 9,8 C 91 % 1010,4 hPa 0,0 mm 0,0 km/h (0 Bft) SW 225 8,5 C 0,0 km/h (0 Bft)
04.09.2015 04:15 10,0 C 9,9 C 91 % 1010,2 hPa 0,0 mm 0,0 km/h (0 Bft) O 90 8,6 C 0,0 km/h (0 Bft)
04.09.2015 04:20 10,0 C 9,9 C 91 % 1010,2 hPa 0,0 mm 0,0 km/h (0 Bft) W-NW 292 8,6 C 0,0 km/h (0 Bft)
04.09.2015 04:25 10,0 C 9,9 C 91 % 1010,2 hPa 0,0 mm 0,5 km/h (0 Bft) S 180 8,6 C 0,0 km/h (0 Bft)
04.09.2015 04:30 9,9 C 9,8 C 91 % 1010,2 hPa 0,0 mm 1,0 km/h (0 Bft) O-SO 112 8,5 C 0,0 km/h (0 Bft)
04.09.2015 04:35 9,9 C 9,8 C 91 % 1010,1 hPa 0,0 mm 0,8 km/h (0 Bft) S-SO 157 8,5 C 0,0 km/h (0 Bft)
04.09.2015 04:40 9,9 C 9,8 C 91 % 1010,1 hPa 0,0 mm 0,0 km/h (0 Bft) SO 135 8,5 C 0,0 km/h (0 Bft)
04.09.2015 04:45 9,9 C 9,8 C 91 % 1010,1 hPa 0,0 mm 0,0 km/h (0 Bft) S 180 8,5 C 0,0 km/h (0 Bft)
04.09.2015 04:50 9,8 C 9,7 C 91 % 1010,1 hPa 0,0 mm 0,0 km/h (0 Bft) SO 135 8,4 C 0,0 km/h (0 Bft)
04.09.2015 04:55 9,8 C 9,6 C 91 % 1009,9 hPa 0,0 mm 0,0 km/h (0 Bft) O-SO 112 8,4 C 0,0 km/h (0 Bft)
04.09.2015 05:00 9,5 C 9,4 C 91 % 1009,9 hPa 0,0 mm 0,0 km/h (0 Bft) W 270 8,1 C 0,0 km/h (0 Bft)
04.09.2015 05:05 9,5 C 9,3 C 91 % 1009,9 hPa 0,0 mm 0,0 km/h (0 Bft) W-SW 247 8,1 C 0,0 km/h (0 Bft)
04.09.2015 05:10 9,4 C 9,2 C 91 % 1009,9 hPa 0,0 mm 0,0 km/h (0 Bft) W-SW 247 8,0 C 0,0 km/h (0 Bft)
04.09.2015 05:15 9,4 C 9,2 C 91 % 1009,8 hPa 0,0 mm 0,0 km/h (0 Bft) SW 225 8,0 C 0,0 km/h (0 Bft)
04.09.2015 05:20 9,5 C 9,3 C 91 % 1009,8 hPa 0,0 mm 0,3 km/h (0 Bft) SO 135 8,1 C 0,0 km/h (0 Bft)
04.09.2015 05:25 9,5 C 9,3 C 91 % 1009,8 hPa 0,0 mm 0,3 km/h (0 Bft) SO 135 8,1 C 0,0 km/h (0 Bft)
04.09.2015 05:30 9,5 C 9,4 C 91 % 1009,8 hPa 0,0 mm 0,0 km/h (0 Bft) SO 135 8,1 C 0,0 km/h (0 Bft)
04.09.2015 05:35 9,5 C 9,4 C 91 % 1009,9 hPa 0,0 mm 0,0 km/h (0 Bft) SO 135 8,1 C 0,0 km/h (0 Bft)
04.09.2015 05:40 9,6 C 9,5 C 91 % 1009,9 hPa 0,0 mm 0,0 km/h (0 Bft) NO 45 8,2 C 0,0 km/h (0 Bft)
04.09.2015 05:45 9,6 C 9,5 C 91 % 1009,9 hPa 0,0 mm 0,0 km/h (0 Bft) O 90 8,2 C 0,0 km/h (0 Bft)
04.09.2015 05:50 9,6 C 9,6 C 88 % 1009,9 hPa 0,0 mm 0,0 km/h (0 Bft) O 90 7,7 C 0,0 km/h (0 Bft)
04.09.2015 05:55 9,7 C 9,6 C 91 % 1009,7 hPa 0,0 mm 0,0 km/h (0 Bft) O-NO 67 8,3 C 0,0 km/h (0 Bft)
04.09.2015 06:00 9,7 C 9,6 C 92 % 1009,7 hPa 0,0 mm 0,0 km/h (0 Bft) O-SO 112 8,5 C 0,0 km/h (0 Bft)
04.09.2015 06:05 9,7 C 9,6 C 92 % 1009,7 hPa 0,0 mm 0,0 km/h (0 Bft) O-NO 67 8,5 C 0,0 km/h (0 Bft)
04.09.2015 06:10 9,7 C 9,6 C 92 % 1009,7 hPa 0,0 mm 0,0 km/h (0 Bft) SO 135 8,5 C 0,0 km/h (0 Bft)
04.09.2015 06:15 9,7 C 9,6 C 92 % 1009,8 hPa 0,0 mm 0,0 km/h (0 Bft) W-SW 247 8,5 C 0,0 km/h (0 Bft)
04.09.2015 06:20 9,6 C 9,5 C 89 % 1009,8 hPa 0,0 mm 0,0 km/h (0 Bft) W-SW 247 7,9 C 0,0 km/h (0 Bft)
04.09.2015 06:25 9,6 C 9,5 C 89 % 1009,8 hPa 0,0 mm 0,0 km/h (0 Bft) W-SW 247 7,9 C 0,0 km/h (0 Bft)
04.09.2015 06:30 9,6 C 9,5 C 89 % 1009,8 hPa 0,0 mm 0,0 km/h (0 Bft) SW 225 7,9 C 0,0 km/h (0 Bft)
04.09.2015 06:35 9,6 C 9,5 C 89 % 1009,8 hPa 0,0 mm 0,0 km/h (0 Bft) S 180 7,9 C 0,0 km/h (0 Bft)
04.09.2015 06:40 9,6 C 9,5 C 92 % 1009,8 hPa 0,0 mm 0,0 km/h (0 Bft) W 270 8,4 C 0,0 km/h (0 Bft)
04.09.2015 06:45 9,6 C 9,6 C 89 % 1009,8 hPa 0,0 mm 0,5 km/h (0 Bft) O-SO 112 7,9 C 0,0 km/h (0 Bft)
04.09.2015 06:49 9,7 C 9,6 C 92 % 1009,8 hPa 0,0 mm 0,5 km/h (0 Bft) S-SO 157 8,5 C 0,0 km/h (0 Bft)
04.09.2015 06:50 9,7 C 9,6 C 92 % 1009,8 hPa 0,0 mm 0,5 km/h (0 Bft) S-SO 157 8,5 C 0,0 km/h (0 Bft)
04.09.2015 06:55 9,7 C 9,6 C 92 % 1009,8 hPa 0,0 mm 0,0 km/h (0 Bft) O-NO 67 8,5 C 0,0 km/h (0 Bft)
04.09.2015 07:00 9,7 C 9,6 C 92 % 1009,8 hPa 0,0 mm 0,8 km/h (0 Bft) S-SO 157 8,5 C 0,0 km/h (0 Bft)
04.09.2015 07:05 9,7 C 9,6 C 92 % 1009,8 hPa 0,0 mm 0,8 km/h (0 Bft) W-NW 292 8,5 C 0,0 km/h (0 Bft)
04.09.2015 07:10 9,7 C 9,7 C 89 % 1009,8 hPa 0,0 mm 0,0 km/h (0 Bft) NW 315 8,0 C 0,0 km/h (0 Bft)
04.09.2015 07:15 9,8 C 9,7 C 92 % 1010,1 hPa 0,0 mm 0,0 km/h (0 Bft) NO 45 8,6 C 0,0 km/h (0 Bft)
04.09.2015 07:20 9,8 C 9,7 C 92 % 1010,1 hPa 0,0 mm 0,0 km/h (0 Bft) S 180 8,6 C 0,0 km/h (0 Bft)
04.09.2015 07:25 9,8 C 9,8 C 89 % 1010,1 hPa 0,0 mm 0,0 km/h (0 Bft) S-SW 202 8,1 C 0,0 km/h (0 Bft)
04.09.2015 07:30 9,8 C 9,8 C 89 % 1010,1 hPa 0,0 mm 0,0 km/h (0 Bft) S-SW 202 8,1 C 0,0 km/h (0 Bft)
04.09.2015 07:35 9,8 C 9,8 C 89 % 1010,3 hPa 0,0 mm 0,0 km/h (0 Bft) S 180 8,1 C 0,0 km/h (0 Bft)
04.09.2015 07:40 9,9 C 9,9 C 89 % 1010,3 hPa 0,0 mm 0,0 km/h (0 Bft) S-SW 202 8,2 C 0,0 km/h (0 Bft)
04.09.2015 07:45 10,0 C 10,0 C 88 % 1010,3 hPa 0,0 mm 0,0 km/h (0 Bft) O-NO 67 8,1 C 0,0 km/h (0 Bft)
04.09.2015 07:50 10,0 C 10,0 C 88 % 1010,3 hPa 0,0 mm 0,0 km/h (0 Bft) W-NW 292 8,1 C 0,0 km/h (0 Bft)
04.09.2015 07:55 10,0 C 10,1 C 88 % 1010,6 hPa 0,0 mm 0,0 km/h (0 Bft) O-NO 67 8,1 C 0,0 km/h (0 Bft)
04.09.2015 08:00 10,1 C 10,1 C 88 % 1010,6 hPa 0,0 mm 0,0 km/h (0 Bft) O-NO 67 8,2 C 0,0 km/h (0 Bft)
04.09.2015 08:05 10,1 C 10,1 C 88 % 1010,6 hPa 0,0 mm 0,0 km/h (0 Bft) W-SW 247 8,2 C 0,0 km/h (0 Bft)
04.09.2015 08:10 10,1 C 10,1 C 88 % 1010,6 hPa 0,0 mm 0,0 km/h (0 Bft) S 180 8,2 C 0,0 km/h (0 Bft)
04.09.2015 08:15 10,1 C 10,1 C 88 % 1010,6 hPa 0,0 mm 0,0 km/h (0 Bft) SO 135 8,2 C 0,0 km/h (0 Bft)
04.09.2015 08:20 10,2 C 10,3 C 88 % 1010,6 hPa 0,0 mm 0,0 km/h (0 Bft) S-SO 157 8,3 C 0,0 km/h (0 Bft)
04.09.2015 08:25 10,2 C 10,4 C 88 % 1010,6 hPa 0,0 mm 0,0 km/h (0 Bft) SW 225 8,3 C 0,0 km/h (0 Bft)
04.09.2015 08:30 10,3 C 10,6 C 88 % 1010,6 hPa 0,0 mm 0,3 km/h (0 Bft) W-SW 247 8,4 C 0,0 km/h (0 Bft)
04.09.2015 08:35 10,4 C 10,6 C 88 % 1010,8 hPa 0,0 mm 1,0 km/h (0 Bft) W 270 8,5 C 6,5 km/h (2 Bft)
04.09.2015 08:40 10,4 C 10,6 C 88 % 1010,8 hPa 0,0 mm 1,8 km/h (1 Bft) S 180 8,5 C 0,0 km/h (0 Bft)
04.09.2015 08:45 10,5 C 10,6 C 88 % 1010,8 hPa 0,0 mm 1,8 km/h (1 Bft) SW 225 8,6 C 2,6 km/h (1 Bft)
04.09.2015 08:50 10,6 C 10,8 C 89 % 1010,8 hPa 0,0 mm 2,1 km/h (1 Bft) S 180 8,9 C 6,5 km/h (2 Bft)
04.09.2015 08:55 10,7 C 10,9 C 89 % 1010,8 hPa 0,0 mm 4,1 km/h (1 Bft) S-SW 202 9,0 C 6,7 km/h (2 Bft)
04.09.2015 09:00 10,9 C 11,2 C 89 % 1010,8 hPa 0,0 mm 5,2 km/h (1 Bft) S 180 9,2 C 6,2 km/h (2 Bft)
04.09.2015 09:05 11,0 C 11,4 C 88 % 1010,8 hPa 0,0 mm 4,1 km/h (1 Bft) W-SW 247 9,1 C 3,9 km/h (1 Bft)
04.09.2015 09:10 11,1 C 11,6 C 88 % 1010,8 hPa 0,0 mm 2,1 km/h (1 Bft) W-NW 292 9,2 C 0,0 km/h (0 Bft)
04.09.2015 09:15 11,2 C 11,6 C 88 % 1010,9 hPa 0,0 mm 1,3 km/h (1 Bft) W-SW 247 9,3 C 0,0 km/h (0 Bft)
04.09.2015 09:20 11,2 C 11,7 C 88 % 1010,9 hPa 0,0 mm 1,0 km/h (0 Bft) W-SW 247 9,3 C 5,7 km/h (1 Bft)
04.09.2015 09:25 11,1 C 11,5 C 88 % 1010,9 hPa 0,0 mm 1,0 km/h (0 Bft) S-SW 202 9,2 C 0,0 km/h (0 Bft)
04.09.2015 09:30 11,1 C 11,2 C 88 % 1010,9 hPa 0,0 mm 1,6 km/h (1 Bft) W 270 9,2 C 4,4 km/h (1 Bft)
04.09.2015 09:35 11,1 C 11,1 C 89 % 1011,1 hPa 0,0 mm 2,3 km/h (1 Bft) W-SW 247 9,4 C 6,5 km/h (2 Bft)
04.09.2015 09:40 11,1 C 11,0 C 89 % 1011,1 hPa 0,0 mm 2,1 km/h (1 Bft) S-SO 157 9,4 C 4,4 km/h (1 Bft)
04.09.2015 09:45 11,0 C 11,0 C 88 % 1011,1 hPa 0,0 mm 1,6 km/h (1 Bft) W-SW 247 9,1 C 2,8 km/h (1 Bft)
04.09.2015 09:50 11,0 C 11,0 C 88 % 1011,1 hPa 0,0 mm 1,3 km/h (1 Bft) S-SW 202 9,1 C 3,4 km/h (1 Bft)
04.09.2015 09:55 11,0 C 11,1 C 88 % 1011,1 hPa 0,0 mm 1,0 km/h (0 Bft) W-SW 247 9,1 C 3,4 km/h (1 Bft)
04.09.2015 10:00 11,1 C 11,2 C 88 % 1011,1 hPa 0,7 mm 1,0 km/h (0 Bft) W 270 9,2 C 0,0 km/h (0 Bft)
04.09.2015 10:05 11,2 C 11,4 C 88 % 1011,1 hPa 0,0 mm 0,8 km/h (0 Bft) W-NW 292 9,3 C 0,0 km/h (0 Bft)
04.09.2015 10:10 11,6 C 12,1 C 88 % 1011,1 hPa 0,0 mm 1,6 km/h (1 Bft) N-NO 22 9,7 C 4,4 km/h (1 Bft)
04.09.2015 10:15 11,8 C 12,2 C 88 % 1011,2 hPa 0,0 mm 2,6 km/h (1 Bft) SW 225 9,9 C 5,2 km/h (1 Bft)
04.09.2015 10:20 12,0 C 12,6 C 87 % 1011,2 hPa 0,0 mm 2,1 km/h (1 Bft) NW 315 9,9 C 0,0 km/h (0 Bft)
04.09.2015 10:25 12,2 C 12,7 C 87 % 1011,2 hPa 0,0 mm 1,0 km/h (0 Bft) S 180 10,1 C 4,9 km/h (1 Bft)
04.09.2015 10:30 12,1 C 12,5 C 87 % 1011,2 hPa 0,0 mm 2,3 km/h (1 Bft) W-SW 247 10,0 C 2,6 km/h (1 Bft)
04.09.2015 10:35 12,1 C 12,4 C 87 % 1011,3 hPa 0,0 mm 3,6 km/h (1 Bft) NW 315 10,0 C 4,9 km/h (1 Bft)
04.09.2015 10:40 12,1 C 12,4 C 87 % 1011,3 hPa 0,0 mm 1,6 km/h (1 Bft) SO 135 10,0 C 0,0 km/h (0 Bft)
04.09.2015 10:45 12,1 C 12,3 C 87 % 1011,3 hPa 0,0 mm 0,5 km/h (0 Bft) S-SO 157 10,0 C 0,0 km/h (0 Bft)
04.09.2015 10:50 12,4 C 13,1 C 87 % 1011,3 hPa 0,0 mm 0,0 km/h (0 Bft) O-SO 112 10,3 C 0,0 km/h (0 Bft)
04.09.2015 10:55 12,7 C 13,7 C 87 % 1010,6 hPa 0,0 mm 0,0 km/h (0 Bft) NW 315 10,6 C 0,0 km/h (0 Bft)
04.09.2015 11:00 12,7 C 13,6 C 87 % 1010,6 hPa 0,0 mm 1,0 km/h (0 Bft) W-SW 247 10,6 C 0,0 km/h (0 Bft)
04.09.2015 11:05 12,7 C 13,3 C 86 % 1010,6 hPa 0,0 mm 1,3 km/h (1 Bft) O-SO 112 10,4 C 0,0 km/h (0 Bft)
04.09.2015 11:10 12,7 C 13,0 C 86 % 1010,6 hPa 0,0 mm 0,8 km/h (0 Bft) W 270 10,4 C 3,4 km/h (1 Bft)
04.09.2015 11:15 12,5 C 12,8 C 86 % 1011,6 hPa 0,0 mm 0,5 km/h (0 Bft) O-SO 112 10,2 C 0,0 km/h (0 Bft)
04.09.2015 11:20 12,3 C 12,8 C 86 % 1011,6 hPa 0,0 mm 0,3 km/h (0 Bft) O-SO 112 10,0 C 0,0 km/h (0 Bft)
04.09.2015 11:25 12,2 C 12,7 C 86 % 1011,6 hPa 0,0 mm 0,0 km/h (0 Bft) SO 135 9,9 C 0,0 km/h (0 Bft)
04.09.2015 11:30 12,4 C 13,1 C 86 % 1011,6 hPa 0,0 mm 0,0 km/h (0 Bft) N-NO 22 10,1 C 0,0 km/h (0 Bft)
04.09.2015 11:35 12,7 C 13,7 C 86 % 1011,3 hPa 0,0 mm 0,0 km/h (0 Bft) SO 135 10,4 C 0,0 km/h (0 Bft)
04.09.2015 11:40 13,2 C 14,8 C 85 % 1011,3 hPa 0,0 mm 0,3 km/h (0 Bft) SO 135 10,7 C 4,9 km/h (1 Bft)
04.09.2015 11:45 13,5 C 15,6 C 85 % 1011,3 hPa 0,0 mm 0,3 km/h (0 Bft) W 270 11,0 C 0,0 km/h (0 Bft)
04.09.2015 11:50 13,9 C 16,9 C 85 % 1011,3 hPa 0,0 mm 1,0 km/h (0 Bft) S 180 11,4 C 0,0 km/h (0 Bft)
04.09.2015 11:55 14,0 C 17,5 C 84 % 1011,3 hPa 0,0 mm 1,3 km/h (1 Bft) NW 315 11,3 C 0,0 km/h (0 Bft)
04.09.2015 12:00 14,5 C 18,9 C 83 % 1011,3 hPa 0,0 mm 1,0 km/h (0 Bft) S-SO 157 11,6 C 0,0 km/h (0 Bft)
04.09.2015 12:05 14,5 C 19,2 C 83 % 1011,3 hPa 0,0 mm 0,5 km/h (0 Bft) O-NO 67 11,6 C 0,0 km/h (0 Bft)
04.09.2015 12:10 14,6 C 19,7 C 83 % 1011,3 hPa 0,0 mm 0,3 km/h (0 Bft) O-NO 67 11,7 C 0,0 km/h (0 Bft)
04.09.2015 12:15 14,9 C 20,2 C 82 % 1011,4 hPa 0,0 mm 0,3 km/h (0 Bft) O-SO 112 11,9 C 0,0 km/h (0 Bft)
04.09.2015 12:20 15,4 C 22,1 C 82 % 1011,4 hPa 0,0 mm 0,5 km/h (0 Bft) W 270 12,3 C 0,0 km/h (0 Bft)
04.09.2015 12:25 15,8 C 22,9 C 81 % 1011,4 hPa 0,0 mm 0,8 km/h (0 Bft) O-NO 67 12,5 C 0,0 km/h (0 Bft)
04.09.2015 12:30 15,8 C 23,4 C 80 % 1011,4 hPa 0,0 mm 1,3 km/h (1 Bft) SW 225 12,4 C 7,0 km/h (2 Bft)
04.09.2015 12:35 15,7 C 23,6 C 78 % 1011,7 hPa 0,0 mm 1,6 km/h (1 Bft) O-NO 67 11,9 C 0,0 km/h (0 Bft)
04.09.2015 12:40 15,1 C 21,8 C 78 % 1011,7 hPa 0,0 mm 1,3 km/h (1 Bft) S 180 11,3 C 0,0 km/h (0 Bft)
04.09.2015 12:45 15,1 C 21,1 C 78 % 1011,7 hPa 0,0 mm 0,5 km/h (0 Bft) W-NW 292 11,3 C 0,0 km/h (0 Bft)
04.09.2015 12:50 15,4 C 20,9 C 78 % 1011,7 hPa 0,0 mm 1,3 km/h (1 Bft) NO 45 11,6 C 0,0 km/h (0 Bft)
04.09.2015 12:55 15,8 C 21,2 C 77 % 1011,8 hPa 0,0 mm 1,8 km/h (1 Bft) O-SO 112 11,8 C 0,0 km/h (0 Bft)
04.09.2015 13:00 16,2 C 21,2 C 76 % 1011,8 hPa 0,0 mm 1,3 km/h (1 Bft) O-NO 67 12,0 C 0,0 km/h (0 Bft)
04.09.2015 13:05 16,4 C 21,1 C 76 % 1011,8 hPa 0,0 mm 1,3 km/h (1 Bft) O-SO 112 12,2 C 3,6 km/h (1 Bft)
04.09.2015 13:10 16,6 C 21,1 C 74 % 1011,8 hPa 0,0 mm 1,8 km/h (1 Bft) O-NO 67 11,9 C 4,4 km/h (1 Bft)
04.09.2015 13:15 16,4 C 21,2 C 72 % 1011,9 hPa 0,0 mm 3,6 km/h (1 Bft) O-NO 67 11,3 C 4,4 km/h (1 Bft)
04.09.2015 13:20 17,0 C 22,3 C 70 % 1011,9 hPa 0,0 mm 4,7 km/h (1 Bft) NW 315 11,5 C 8,0 km/h (2 Bft)
04.09.2015 13:25 17,5 C 22,9 C 71 % 1011,9 hPa 0,0 mm 3,4 km/h (1 Bft) NW 315 12,2 C 6,2 km/h (2 Bft)
04.09.2015 13:30 18,0 C 23,5 C 67 % 1011,9 hPa 0,0 mm 4,9 km/h (1 Bft) NW 315 11,8 C 6,5 km/h (2 Bft)
04.09.2015 13:35 17,7 C 23,2 C 65 % 1012,0 hPa 0,0 mm 5,4 km/h (1 Bft) O 90 11,0 C 0,0 km/h (0 Bft)
04.09.2015 13:40 17,3 C 22,3 C 64 % 1012,0 hPa 0,0 mm 3,4 km/h (1 Bft) NW 315 10,4 C 3,1 km/h (1 Bft)
04.09.2015 13:45 17,4 C 22,2 C 64 % 1012,0 hPa 0,0 mm 2,1 km/h (1 Bft) W 270 10,5 C 0,0 km/h (0 Bft)
04.09.2015 13:50 17,8 C 23,2 C 61 % 1012,0 hPa 0,0 mm 2,8 km/h (1 Bft) W-SW 247 10,2 C 6,2 km/h (2 Bft)
04.09.2015 13:55 17,7 C 23,9 C 61 % 1011,8 hPa 0,0 mm 3,4 km/h (1 Bft) W-SW 247 10,1 C 0,0 km/h (0 Bft)
04.09.2015 14:00 18,1 C 24,7 C 59 % 1011,8 hPa 0,0 mm 4,4 km/h (1 Bft) S 180 10,0 C 14,0 km/h (3 Bft)
04.09.2015 14:05 18,0 C 24,2 C 59 % 1011,8 hPa 0,0 mm 4,9 km/h (1 Bft) S 180 9,9 C 4,4 km/h (1 Bft)
04.09.2015 14:10 18,7 C 24,7 C 60 % 1011,8 hPa 0,0 mm 5,4 km/h (1 Bft) W-SW 247 10,8 C 6,5 km/h (2 Bft)
04.09.2015 14:15 18,7 C 24,9 C 59 % 1011,8 hPa 0,0 mm 4,7 km/h (1 Bft) S 180 10,5 C 9,1 km/h (2 Bft)
04.09.2015 14:20 18,9 C 25,1 C 58 % 1011,8 hPa 0,0 mm 5,2 km/h (1 Bft) NW 315 10,5 C 9,3 km/h (2 Bft)
04.09.2015 14:25 19,0 C 25,0 C 57 % 1011,8 hPa 0,0 mm 5,7 km/h (1 Bft) NW 315 10,3 C 16,1 km/h (3 Bft)
04.09.2015 14:30 18,0 C 23,5 C 56 % 1011,8 hPa 0,0 mm 6,7 km/h (2 Bft) NW 315 9,1 C 17,1 km/h (3 Bft)
04.09.2015 14:35 17,8 C 22,5 C 58 % 1011,7 hPa 0,0 mm 6,5 km/h (2 Bft) W 270 9,4 C 9,3 km/h (2 Bft)
04.09.2015 14:40 17,5 C 21,7 C 59 % 1011,7 hPa 0,0 mm 3,6 km/h (1 Bft) S 180 9,4 C 0,0 km/h (0 Bft)
04.09.2015 14:45 17,4 C 21,1 C 59 % 1011,7 hPa 0,0 mm 3,6 km/h (1 Bft) NW 315 9,3 C 8,8 km/h (2 Bft)
04.09.2015 14:50 17,2 C 20,4 C 59 % 1011,7 hPa 0,0 mm 3,6 km/h (1 Bft) NW 315 9,1 C 4,7 km/h (1 Bft)
04.09.2015 14:55 17,1 C 19,9 C 59 % 1011,4 hPa 0,0 mm 4,1 km/h (1 Bft) W-NW 292 9,0 C 5,7 km/h (1 Bft)
04.09.2015 15:00 17,2 C 20,0 C 59 % 1011,4 hPa 0,0 mm 4,9 km/h (1 Bft) N-NW 337 9,1 C 8,5 km/h (2 Bft)
04.09.2015 15:05 17,2 C 19,9 C 59 % 1011,4 hPa 0,0 mm 5,2 km/h (1 Bft) N 360 9,1 C 16,1 km/h (3 Bft)
04.09.2015 15:10 17,2 C 19,7 C 59 % 1011,4 hPa 0,0 mm 4,7 km/h (1 Bft) N-NO 22 9,1 C 4,7 km/h (1 Bft)
04.09.2015 15:15 17,1 C 19,4 C 59 % 1011,1 hPa 0,0 mm 5,2 km/h (1 Bft) N-NW 337 9,0 C 9,1 km/h (2 Bft)
04.09.2015 15:20 16,9 C 19,0 C 59 % 1011,1 hPa 0,0 mm 4,4 km/h (1 Bft) N-NW 337 8,8 C 3,6 km/h (1 Bft)
04.09.2015 15:25 16,8 C 18,9 C 59 % 1011,1 hPa 0,0 mm 5,2 km/h (1 Bft) N-NW 337 8,7 C 13,2 km/h (3 Bft)
04.09.2015 15:30 16,4 C 18,2 C 60 % 1011,1 hPa 0,0 mm 6,2 km/h (2 Bft) NW 315 8,6 C 4,4 km/h (1 Bft)
04.09.2015 15:35 16,4 C 18,1 C 60 % 1010,8 hPa 0,0 mm 7,0 km/h (2 Bft) NO 45 8,6 C 7,8 km/h (2 Bft)
04.09.2015 15:40 16,4 C 18,2 C 60 % 1010,8 hPa 0,0 mm 5,2 km/h (1 Bft) W-NW 292 8,6 C 5,4 km/h (1 Bft)
04.09.2015 15:45 16,3 C 18,1 C 60 % 1010,8 hPa 0,0 mm 4,9 km/h (1 Bft) W-NW 292 8,5 C 6,2 km/h (2 Bft)
04.09.2015 15:50 16,4 C 18,3 C 61 % 1010,8 hPa 0,0 mm 2,8 km/h (1 Bft) W-NW 292 8,9 C 0,0 km/h (0 Bft)
04.09.2015 15:55 16,4 C 18,9 C 62 % 1010,4 hPa 0,0 mm 1,0 km/h (0 Bft) W-SW 247 9,1 C 0,0 km/h (0 Bft)
04.09.2015 16:00 16,6 C 19,9 C 62 % 1010,4 hPa 0,0 mm 1,0 km/h (0 Bft) NW 315 9,3 C 7,8 km/h (2 Bft)
04.09.2015 16:05 17,0 C 20,4 C 61 % 1010,4 hPa 0,0 mm 2,6 km/h (1 Bft) N-NW 337 9,4 C 6,2 km/h (2 Bft)
04.09.2015 16:10 17,1 C 21,1 C 60 % 1010,4 hPa 0,0 mm 3,1 km/h (1 Bft) NW 315 9,3 C 0,0 km/h (0 Bft)
04.09.2015 16:15 16,5 C 20,4 C 60 % 1010,2 hPa 0,0 mm 1,6 km/h (1 Bft) W 270 8,7 C 0,0 km/h (0 Bft)
04.09.2015 16:20 16,2 C 19,3 C 60 % 1010,2 hPa 0,0 mm 0,3 km/h (0 Bft) W 270 8,4 C 0,0 km/h (0 Bft)
04.09.2015 16:25 16,2 C 19,1 C 62 % 1010,2 hPa 0,0 mm 0,0 km/h (0 Bft) W 270 8,9 C 0,0 km/h (0 Bft)
04.09.2015 16:30 16,2 C 19,0 C 63 % 1010,2 hPa 0,0 mm 0,0 km/h (0 Bft) W 270 9,1 C 0,0 km/h (0 Bft)
04.09.2015 16:35 16,0 C 18,7 C 63 % 1009,9 hPa 0,0 mm 0,8 km/h (0 Bft) W 270 9,0 C 3,9 km/h (1 Bft)
04.09.2015 16:40 15,8 C 18,4 C 65 % 1009,9 hPa 0,0 mm 0,5 km/h (0 Bft) W 270 9,2 C 0,0 km/h (0 Bft)
04.09.2015 16:45 15,6 C 18,3 C 66 % 1009,9 hPa 0,0 mm 0,3 km/h (0 Bft) W 270 9,3 C 0,0 km/h (0 Bft)
04.09.2015 16:50 15,5 C 18,3 C 67 % 1009,9 hPa 0,0 mm 0,0 km/h (0 Bft) W 270 9,4 C 0,0 km/h (0 Bft)
04.09.2015 16:55 15,5 C 18,3 C 67 % 1009,8 hPa 0,0 mm 0,0 km/h (0 Bft) W 270 9,4 C 0,0 km/h (0 Bft)
04.09.2015 17:00 15,5 C 18,5 C 67 % 1009,8 hPa 0,0 mm 0,0 km/h (0 Bft) W 270 9,4 C 0,0 km/h (0 Bft)
04.09.2015 17:05 15,7 C 18,6 C 67 % 1009,8 hPa 0,0 mm 0,0 km/h (0 Bft) W 270 9,6 C 0,0 km/h (0 Bft)
04.09.2015 17:10 15,9 C 18,4 C 66 % 1009,8 hPa 0,0 mm 0,0 km/h (0 Bft) N-NO 22 9,6 C 0,0 km/h (0 Bft)
04.09.2015 17:15 16,0 C 18,5 C 66 % 1009,6 hPa 0,0 mm 0,0 km/h (0 Bft) N-NO 22 9,7 C 0,0 km/h (0 Bft)
04.09.2015 17:20 16,0 C 18,5 C 66 % 1009,6 hPa 0,0 mm 0,5 km/h (0 Bft) O-SO 112 9,7 C 4,9 km/h (1 Bft)
04.09.2015 17:25 15,9 C 18,3 C 67 % 1009,6 hPa 0,0 mm 1,0 km/h (0 Bft) O-NO 67 9,8 C 3,4 km/h (1 Bft)
04.09.2015 17:30 15,9 C 18,1 C 67 % 1009,6 hPa 0,0 mm 1,6 km/h (1 Bft) O-SO 112 9,8 C 3,6 km/h (1 Bft)
04.09.2015 17:35 16,0 C 18,2 C 65 % 1009,5 hPa 0,0 mm 1,3 km/h (1 Bft) O-SO 112 9,4 C 0,0 km/h (0 Bft)
04.09.2015 17:40 16,1 C 18,1 C 64 % 1009,5 hPa 0,0 mm 1,3 km/h (1 Bft) O-SO 112 9,3 C 0,0 km/h (0 Bft)
04.09.2015 17:45 16,0 C 18,0 C 65 % 1009,5 hPa 0,0 mm 1,0 km/h (0 Bft) N-NO 22 9,4 C 6,5 km/h (2 Bft)
04.09.2015 17:50 15,8 C 17,5 C 66 % 1009,5 hPa 0,0 mm 1,0 km/h (0 Bft) O 90 9,5 C 0,0 km/h (0 Bft)
04.09.2015 17:55 15,6 C 17,2 C 66 % 1009,4 hPa 0,0 mm 0,8 km/h (0 Bft) O-NO 67 9,3 C 0,0 km/h (0 Bft)
04.09.2015 18:00 15,5 C 16,8 C 68 % 1009,4 hPa 0,0 mm 0,3 km/h (0 Bft) O-SO 112 9,6 C 0,0 km/h (0 Bft)
04.09.2015 18:05 15,5 C 16,8 C 68 % 1009,4 hPa 0,0 mm 0,3 km/h (0 Bft) O-SO 112 9,6 C 0,0 km/h (0 Bft)
04.09.2015 18:10 15,3 C 16,7 C 69 % 1009,4 hPa 0,0 mm 0,0 km/h (0 Bft) O-SO 112 9,6 C 0,0 km/h (0 Bft)
04.09.2015 18:15 15,2 C 16,5 C 69 % 1009,6 hPa 0,0 mm 0,0 km/h (0 Bft) O-SO 112 9,6 C 0,0 km/h (0 Bft)
04.09.2015 18:20 15,0 C 16,4 C 70 % 1009,6 hPa 0,0 mm 0,0 km/h (0 Bft) O-SO 112 9,6 C 0,0 km/h (0 Bft)
04.09.2015 18:25 15,0 C 16,2 C 71 % 1009,6 hPa 0,0 mm 0,0 km/h (0 Bft) O-SO 112 9,8 C 0,0 km/h (0 Bft)
04.09.2015 18:30 14,8 C 16,0 C 72 % 1009,6 hPa 0,0 mm 0,0 km/h (0 Bft) O-SO 112 9,8 C 0,0 km/h (0 Bft)
04.09.2015 18:35 14,7 C 15,8 C 72 % 1009,6 hPa 0,0 mm 0,0 km/h (0 Bft) O-SO 112 9,7 C 0,0 km/h (0 Bft)
04.09.2015 18:40 14,6 C 15,6 C 73 % 1009,6 hPa 0,0 mm 0,0 km/h (0 Bft) O-SO 112 9,8 C 0,0 km/h (0 Bft)
04.09.2015 18:45 14,5 C 15,5 C 73 % 1009,6 hPa 0,0 mm 0,0 km/h (0 Bft) O-SO 112 9,7 C 0,0 km/h (0 Bft)
04.09.2015 18:50 14,3 C 15,2 C 74 % 1009,6 hPa 0,0 mm 0,0 km/h (0 Bft) O-SO 112 9,7 C 0,0 km/h (0 Bft)
04.09.2015 18:51 14,3 C 15,2 C 74 % 1009,6 hPa 0,0 mm 0,0 km/h (0 Bft) O-SO 112 9,7 C 0,0 km/h (0 Bft)
04.09.2015 18:55 14,3 C 15,2 C 74 % 1009,6 hPa 0,0 mm 0,0 km/h (0 Bft) O-SO 112 9,7 C 0,0 km/h (0 Bft)
04.09.2015 19:00 14,2 C 15,0 C 75 % 1009,6 hPa 0,0 mm 0,0 km/h (0 Bft) O-SO 112 9,8 C 0,0 km/h (0 Bft)
04.09.2015 19:05 14,2 C 14,9 C 75 % 1009,6 hPa 0,0 mm 0,0 km/h (0 Bft) O-SO 112 9,8 C 0,0 km/h (0 Bft)
04.09.2015 19:10 14,1 C 14,6 C 76 % 1009,6 hPa 0,0 mm 0,3 km/h (0 Bft) O-SO 112 9,9 C 0,0 km/h (0 Bft)
04.09.2015 19:15 14,0 C 14,4 C 76 % 1009,3 hPa 0,0 mm 0,3 km/h (0 Bft) O-SO 112 9,8 C 0,0 km/h (0 Bft)
04.09.2015 19:20 13,9 C 14,2 C 76 % 1009,3 hPa 0,0 mm 0,3 km/h (0 Bft) O-SO 112 9,7 C 0,0 km/h (0 Bft)
04.09.2015 19:25 13,8 C 14,1 C 77 % 1009,3 hPa 0,0 mm 0,0 km/h (0 Bft) O-SO 112 9,8 C 0,0 km/h (0 Bft)
04.09.2015 19:30 13,7 C 13,9 C 78 % 1009,3 hPa 0,0 mm 0,0 km/h (0 Bft) O-SO 112 9,9 C 0,0 km/h (0 Bft)
04.09.2015 19:35 13,6 C 13,7 C 78 % 1009,2 hPa 0,0 mm 0,0 km/h (0 Bft) O-SO 112 9,8 C 0,0 km/h (0 Bft)
04.09.2015 19:40 13,5 C 13,5 C 79 % 1009,2 hPa 0,0 mm 0,0 km/h (0 Bft) O-SO 112 9,9 C 0,0 km/h (0 Bft)
04.09.2015 19:45 13,4 C 13,4 C 80 % 1009,2 hPa 0,0 mm 0,0 km/h (0 Bft) O-SO 112 10,0 C 0,0 km/h (0 Bft)
04.09.2015 19:50 13,3 C 13,3 C 81 % 1009,2 hPa 0,0 mm 0,0 km/h (0 Bft) SO 135 10,1 C 0,0 km/h (0 Bft)
04.09.2015 19:55 13,3 C 13,3 C 80 % 1009,2 hPa 0,0 mm 1,0 km/h (0 Bft) S-SO 157 9,9 C 3,1 km/h (1 Bft)
04.09.2015 20:00 13,1 C 13,1 C 80 % 1009,2 hPa 0,0 mm 1,3 km/h (1 Bft) S-SO 157 9,7 C 0,0 km/h (0 Bft)
04.09.2015 20:05 13,0 C 13,0 C 80 % 1009,2 hPa 0,0 mm 0,8 km/h (0 Bft) S 180 9,6 C 3,1 km/h (1 Bft)
04.09.2015 20:10 12,8 C 12,8 C 81 % 1009,2 hPa 0,0 mm 1,3 km/h (1 Bft) S 180 9,6 C 0,0 km/h (0 Bft)
04.09.2015 20:15 12,5 C 12,5 C 81 % 1009,0 hPa 0,0 mm 1,3 km/h (1 Bft) S 180 9,3 C 0,0 km/h (0 Bft)
04.09.2015 20:20 12,3 C 12,2 C 81 % 1009,0 hPa 0,0 mm 0,0 km/h (0 Bft) S 180 9,1 C 0,0 km/h (0 Bft)
04.09.2015 20:25 12,2 C 12,2 C 81 % 1009,0 hPa 0,0 mm 0,0 km/h (0 Bft) S 180 9,0 C 0,0 km/h (0 Bft)
04.09.2015 20:30 12,2 C 12,1 C 82 % 1009,0 hPa 0,0 mm 0,0 km/h (0 Bft) S 180 9,2 C 0,0 km/h (0 Bft)
04.09.2015 20:35 12,2 C 12,1 C 82 % 1008,9 hPa 0,0 mm 0,0 km/h (0 Bft) S 180 9,2 C 0,0 km/h (0 Bft)
04.09.2015 20:40 12,2 C 12,1 C 82 % 1008,9 hPa 0,0 mm 0,0 km/h (0 Bft) S 180 9,2 C 0,0 km/h (0 Bft)
04.09.2015 20:45 12,2 C 12,1 C 82 % 1008,9 hPa 0,0 mm 0,0 km/h (0 Bft) S 180 9,2 C 0,0 km/h (0 Bft)
04.09.2015 20:50 12,1 C 11,9 C 82 % 1008,9 hPa 0,0 mm 0,0 km/h (0 Bft) S 180 9,1 C 0,0 km/h (0 Bft)
04.09.2015 20:55 12,1 C 11,9 C 82 % 1009,0 hPa 0,0 mm 0,0 km/h (0 Bft) S 180 9,1 C 0,0 km/h (0 Bft)
04.09.2015 21:00 12,1 C 11,9 C 82 % 1009,0 hPa 0,0 mm 0,0 km/h (0 Bft) S 180 9,1 C 0,0 km/h (0 Bft)
04.09.2015 21:05 12,1 C 11,9 C 82 % 1009,0 hPa 0,0 mm 0,0 km/h (0 Bft) S 180 9,1 C 0,0 km/h (0 Bft)
04.09.2015 21:10 12,2 C 12,0 C 83 % 1009,0 hPa 0,0 mm 0,0 km/h (0 Bft) SO 135 9,4 C 0,0 km/h (0 Bft)
04.09.2015 21:15 12,2 C 12,0 C 83 % 1009,2 hPa 0,0 mm 0,0 km/h (0 Bft) SO 135 9,4 C 0,0 km/h (0 Bft)
04.09.2015 21:20 12,1 C 11,9 C 83 % 1009,2 hPa 0,0 mm 0,0 km/h (0 Bft) SO 135 9,3 C 0,0 km/h (0 Bft)
04.09.2015 21:25 12,0 C 11,9 C 83 % 1009,2 hPa 0,0 mm 0,0 km/h (0 Bft) SO 135 9,2 C 0,0 km/h (0 Bft)
04.09.2015 21:30 12,1 C 11,9 C 83 % 1009,2 hPa 0,0 mm 0,0 km/h (0 Bft) W-SW 247 9,3 C 0,0 km/h (0 Bft)
04.09.2015 21:35 12,1 C 11,9 C 83 % 1009,5 hPa 0,0 mm 0,0 km/h (0 Bft) S-SW 202 9,3 C 0,0 km/h (0 Bft)
04.09.2015 21:40 12,0 C 11,9 C 83 % 1009,5 hPa 0,0 mm 0,0 km/h (0 Bft) S-SW 202 9,2 C 0,0 km/h (0 Bft)
04.09.2015 21:45 12,0 C 11,9 C 83 % 1009,5 hPa 0,0 mm 0,0 km/h (0 Bft) S-SW 202 9,2 C 0,0 km/h (0 Bft)
04.09.2015 21:50 11,9 C 11,8 C 83 % 1009,5 hPa 0,0 mm 0,0 km/h (0 Bft) S-SW 202 9,1 C 0,0 km/h (0 Bft)
04.09.2015 21:55 11,8 C 11,7 C 83 % 1009,4 hPa 0,0 mm 0,0 km/h (0 Bft) W 270 9,0 C 0,0 km/h (0 Bft)
04.09.2015 22:00 11,7 C 11,6 C 83 % 1009,4 hPa 0,0 mm 0,0 km/h (0 Bft) W 270 8,9 C 0,0 km/h (0 Bft)
04.09.2015 22:05 11,6 C 11,5 C 83 % 1009,4 hPa 0,0 mm 0,0 km/h (0 Bft) W 270 8,8 C 0,0 km/h (0 Bft)
04.09.2015 22:10 11,7 C 11,5 C 83 % 1009,4 hPa 0,0 mm 0,0 km/h (0 Bft) W 270 8,9 C 0,0 km/h (0 Bft)
04.09.2015 22:15 11,7 C 11,5 C 83 % 1009,4 hPa 0,0 mm 0,0 km/h (0 Bft) W-SW 247 8,9 C 0,0 km/h (0 Bft)
04.09.2015 22:20 11,7 C 11,6 C 83 % 1009,4 hPa 0,0 mm 0,0 km/h (0 Bft) W 270 8,9 C 0,0 km/h (0 Bft)
04.09.2015 22:25 11,7 C 11,6 C 83 % 1009,4 hPa 0,0 mm 0,0 km/h (0 Bft) W 270 8,9 C 0,0 km/h (0 Bft)
04.09.2015 22:30 11,7 C 11,6 C 83 % 1009,4 hPa 0,0 mm 0,0 km/h (0 Bft) W 270 8,9 C 0,0 km/h (0 Bft)
04.09.2015 22:35 11,7 C 11,6 C 83 % 1009,4 hPa 0,0 mm 0,0 km/h (0 Bft) W 270 8,9 C 0,0 km/h (0 Bft)
04.09.2015 22:40 11,7 C 11,6 C 83 % 1009,4 hPa 0,0 mm 0,0 km/h (0 Bft) W 270 8,9 C 0,0 km/h (0 Bft)
04.09.2015 22:45 11,7 C 11,6 C 83 % 1009,4 hPa 0,0 mm 0,0 km/h (0 Bft) W 270 8,9 C 0,0 km/h (0 Bft)
04.09.2015 22:50 11,7 C 11,6 C 83 % 1009,4 hPa 0,0 mm 0,3 km/h (0 Bft) SW 225 8,9 C 2,8 km/h (1 Bft)
04.09.2015 22:55 11,7 C 11,6 C 83 % 1009,2 hPa 0,0 mm 0,3 km/h (0 Bft) W-SW 247 8,9 C 0,0 km/h (0 Bft)
04.09.2015 23:00 11,7 C 11,6 C 83 % 1009,2 hPa 0,0 mm 0,3 km/h (0 Bft) SW 225 8,9 C 0,0 km/h (0 Bft)
04.09.2015 23:05 11,6 C 11,5 C 83 % 1009,2 hPa 0,0 mm 0,0 km/h (0 Bft) S 180 8,8 C 0,0 km/h (0 Bft)
04.09.2015 23:10 11,6 C 11,5 C 83 % 1009,2 hPa 0,0 mm 0,0 km/h (0 Bft) W-SW 247 8,8 C 0,0 km/h (0 Bft)
04.09.2015 23:15 11,6 C 11,5 C 84 % 1009,4 hPa 0,0 mm 0,0 km/h (0 Bft) W-SW 247 9,0 C 0,0 km/h (0 Bft)
04.09.2015 23:20 11,5 C 11,4 C 83 % 1009,4 hPa 0,0 mm 0,0 km/h (0 Bft) W 270 8,7 C 0,0 km/h (0 Bft)
04.09.2015 23:25 11,5 C 11,4 C 83 % 1009,4 hPa 0,0 mm 0,0 km/h (0 Bft) SW 225 8,7 C 3,4 km/h (1 Bft)
04.09.2015 23:30 11,5 C 11,4 C 83 % 1009,4 hPa 0,0 mm 0,0 km/h (0 Bft) W 270 8,7 C 0,0 km/h (0 Bft)
04.09.2015 23:35 11,4 C 11,3 C 83 % 1009,2 hPa 0,0 mm 0,0 km/h (0 Bft) W-NW 292 8,6 C 0,0 km/h (0 Bft)
04.09.2015 23:40 11,4 C 11,3 C 83 % 1009,2 hPa 0,0 mm 0,3 km/h (0 Bft) W 270 8,6 C 0,0 km/h (0 Bft)
04.09.2015 23:45 11,6 C 11,4 C 83 % 1009,2 hPa 0,0 mm 1,6 km/h (1 Bft) SW 225 8,8 C 0,0 km/h (0 Bft)
04.09.2015 23:50 11,6 C 11,5 C 83 % 1009,2 hPa 0,0 mm 1,3 km/h (1 Bft) S 180 8,8 C 0,0 km/h (0 Bft)
04.09.2015 23:55 11,6 C 11,5 C 83 % 1009,2 hPa 0,0 mm 0,0 km/h (0 Bft) S 180 8,8 C 0,0 km/h (0 Bft)
_ Min-Zeit 05:15 05:15 14:30 20:50 - 23:55 - - 05:50 23:55
Minimum _ 9,4 C 9,2 C 56 % 1008,9 hPa - 0,0 km/h (0 Bft) - - 7,7 C 0,0 km/h (0 Bft)
_ Max-Zeit 14:25 14:20 07:20 13:50 10:00 15:35 - - 12:25 14:30
Maximum _ 19,0 C 25,1 C 92 % 1012,0 hPa 0,7 mm 7,0 km/h
NO (2 Bft)
- - 12,5 C 17,1 km/h
NW (3 Bft)
Durchschnitt _ 12,6 C 13,7 C 81 % 1010,3 hPa #3,4 mm 1,0 km/h (0 Bft) NW - 9,3 C 1,5 km/h (1 Bft)